Regional Weather Roundup
Issued by NWS

Home | Current Version | Previous Version | Graphics & Text | Print | Product List | Glossary On
Versions: 1 2 3 4 5 6 7 8 9 10 11 12 13 14 15 16 17 18 19 20 21 22 23 24 25 26 27 28 29 30 31 32 33 34 35 36 37 38 39 40 41 42 43 44 45 46 47 48 49 50
281
ASUS45 KBOU 230410
RWRCO

WEATHER ROUNDUP FOR COLORADO
NATIONAL WEATHER SERVICE PUEBLO CO
900 PM MST THU FEB 22 2018

NOTE: "FAIR" INDICATES FEW OR NO CLOUDS BELOW 12000 FEET WITH NO
SIGNIFICANT WEATHER AND/OR OBSTRUCTIONS TO VISIBILITY.

COZ001>005-013-030-031-230500-
...NORTHWEST COLORADO...

CITY           SKY/WX    TMP DP  RH WIND       PRES   REMARKS
CRAIG          LGT SNOW  22  18  85 NE5       29.98S VSB 1   WCI  16
HAYDEN         SNOW      19  18  93 CALM      29.98S VSB 1/2
MEEKER         CLOUDY    21  18  88 E3        29.95S
RABBIT EARS PA NOT AVBL
STEAMBOAT SPGS CLOUDY    19  18  94 CALM      29.96R
WALDEN         CLOUDY    14  10  85 SE6       29.91R WCI   5
$$

COZ006>008-011-230500-
...WEST CENTRAL VALLEYS...

CITY           SKY/WX    TMP DP  RH WIND       PRES   REMARKS
GRAND JUNCTION MOCLDY    27  26  96 N7        30.00R WCI  19
MONTROSE       CLOUDY    30  17  58 N7        29.99F WCI  23
EAGLE          FLURRIES  23  17  78 S3        29.98S
RIFLE          LGT SNOW  26  25  96 CALM      30.00R FOG
DELTA          NOT AVBL
NUCLA          CLOUDY    27  18  69 E7        30.01R WCI  19
$$

COZ017>023-064>068-230500-
...SOUTHWEST COLORADO...

CITY           SKY/WX    TMP DP  RH WIND       PRES   REMARKS
DURANGO        CLOUDY    26  18  71 E7        30.00S WCI  18
CORTEZ         CLOUDY    25  12  58 CALM      29.99S
PAGOSA SPRINGS CLOUDY    22  18  85 NE3       30.02S
TELLURIDE      CLOUDY    19   8  61 SE15      29.95S WCI   5
WOLF CREEK PAS CLOUDY     5   5 100 S21G32    29.92F WCI -16
$$

COZ009-010-012-014-032>034-037-058>063-230500-
...CENTRAL COLORADO...

CITY           SKY/WX    TMP DP  RH WIND       PRES   REMARKS
ASPEN          MOCLDY    12   7  80 SW3       29.91R
BUENA VISTA    FAIR      19   9  64 S3        29.95R
COPPER MTN     PTCLDY     9  -6  52 SW15G24   29.83R WCI  -8
BERTHOUD PASS  FAIR       0 -11  60 W23G29    29.81S WCI -24
COTTONWOOD PAS CLOUDY    21  12  68 W5        29.91R WCI  15
GUNNISON       CLOUDY    19  10  68 S10       29.97R WCI   7
KREMMLING      CLOUDY    27  12  54 W3G9      29.94S
LEADVILLE      PTCLDY     8  -6  52 VRB5      29.87R WCI   0
MONARCH PASS   CLOUDY     5   1  85 SW29      29.95R WCI -19
SALIDA         FAIR      23  11  59 SW7       30.04R WCI  15
SUNLIGHT       LGT SNOW   9   5  85 SW9G16    29.90R WCI  -5
WILKERSON PASS CLEAR      7   3  85 SW10G18   29.88S WCI  -8
$$

COZ069>075-230500-
...SAN LUIS VALLEY/SANGRE DE CRISTO MOUNTAINS...

CITY           SKY/WX    TMP DP  RH WIND       PRES   REMARKS
ALAMOSA        CLEAR     16  10  77 VRB5      30.02R WCI   9
DEL NORTE      MOCLDY    18  10  71 W5        30.00R WCI  11
LA VETA PASS   CLOUDY    14   9  79 S18G33    30.05R WCI  -3
SAGUACHE       CLEAR     18   1  49 NE3       30.00R
$$

COZ035-036-038>040-230500-
...NORTHERN COLORADO FRONT RANGE...

CITY           SKY/WX    TMP DP  RH WIND       PRES   REMARKS
DENVER INTL AP LGT SNOW  21  18  88 W3        30.02S FOG
DMNS CITY PARK NOT AVBL
AURORA         CLOUDY    21  21  99 NW3       30.01S
FRONT RANGE AP LGT SNOW  23  19  86 W3        30.03R
ERIE MUNI ARPT FLURRIES  24  20  87 CALM      30.09R
BOULDER MUN AP FAIR      21  18  86 CALM      30.03R
CENTENNIAL     CLOUDY    21  19  92 W3        30.00S FOG
BROOMFIELD     FLURRIES  23  19  86 NW6       30.01S WCI  16
LOVELAND       PTCLDY    20  15  81 CALM      30.04S
LONGMONT       FAIR      18  13  83 W3        30.06S
$$

COZ041-046-047-076>085-087-088-230500-
...PIKES PEAK/PALMER DIVIDE AND SOUTHERN FOOTHILLS...

CITY           SKY/WX    TMP DP  RH WIND       PRES   REMARKS
COLO. SPRINGS  PTCLDY    25  19  78 NW3       29.98R
A. F. ACADEMY  CLOUDY    20  17  85 N9        29.97R WCI  10
SCHRIEVER AFB  NOT AVBL
CHEYENNE MTN   NOT AVBL
ELLICOTT         N/A    N/A N/A N/A NE6       29.97R
FALCON         FAIR      18  16  93 NE5       29.98R WCI  11
FORT CARSON    PTCLDY    24  19  79 N9        29.98R WCI  14
LIMON          CLOUDY    22  20  92 N13       30.01S FOG     WCI  10
MONUMENT HILL  CLOUDY    18  18 100 NW6       29.98R FOG     WCI   9
CANON CITY     CLEAR     34   7  32 SW10      29.97R WCI  26
WALSENBURG     FAIR      32  12  43 SW15      30.01R WCI  22
TRINIDAD       CLEAR     29   6  38 W9        30.01R WCI  20
$$

COZ042>045-048>051-090-091-230500-
...NORTHEAST COLORADO...

CITY           SKY/WX    TMP DP  RH WIND       PRES   REMARKS
GREELEY ARPT   PTCLDY    20  15  81 N6        30.05F WCI  12
AKRON          CLOUDY    21  18  88 N5        30.03S WCI  15
BURLINGTON     CLEAR     14  12  92 E6        30.05R WCI   5
WRAY           MOCLDY    23  21  93 CALM      30.10R
YUMA           NOT AVBL
STERLING       FAIR      21  19  93 S3        30.05R
HOLYOKE        FAIR      25  21  86 CALM      30.08F
FORT MORGAN    CLOUDY    24  16  72 CALM      30.06R
$$

COZ086-089-092>099-230500-
...SOUTHEAST COLORADO...

CITY           SKY/WX    TMP DP  RH WIND       PRES   REMARKS
PUEBLO         CLEAR     29  19  66 N12       30.00R WCI  19
LA JUNTA       CLEAR     26  19  74 NE9       30.01R WCI  17
LAMAR          CLEAR     24  17  74 E7        30.01R WCI  16
SPRINGFIELD      N/A     27  10  49 W10       30.01R WCI  17
$$





USA.gov is the U.S. government's official web portal to all federal, state and local government web resources and services.